IRIDIUM 130

Last updated on Fri Sep 11 2026 00:03:06 GMT+0000 (Coordinated Universal Time)

1 43073U 17083D 26253.51017549 .00000145 00000+0 44661-4 0 9990 2 43073 86.3934 286.6163 0002212 87.4278 272.7171 14.34218347456343
UTC large
Height (km)
Speed (km/s)
/
Latitude / Longitude
Inclination (degrees)
Orbital Period (minutes)
Azimuth
Elevation
Range (km)
Doppler Factor

Next 0 passes for location: London (51.5072 / 0.1276)

No passes found over London.
IRIDIUM 130